CAL947 RCTP-RJSS

Flight info

Callsign CAL947
Flight time 0h 55m
Altitude 36200
Route MOLKA1A MOLKA M750 IMPAL Y755 CARDS DCT CBE Y121 SWING Y88 TENRU Y15 OWLET OWLETW
Aircraft B77W/H-SDE2E3FGHIJ2J3J5M1RWXYZ/LB2D1

Departure

Time 2026-05-08 06:56
Airport Taiwan Taoyuan International Airport (RCTP)

Arrival

Time 2026-05-08 07:52
Airport Sendai Airport (RJSS)
Time Latitude Longitude Altitude Speed Heading
2026-05-08 06:40 25.07980 121.23907 106 ft 0 kts 319°
2026-05-08 06:45 25.07973 121.23914 106 ft 2 kts 316°
2026-05-08 06:46 25.07962 121.23926 103 ft 2 kts 316°
2026-05-08 06:46 25.07950 121.23939 104 ft 2 kts 316°
2026-05-08 06:46 25.07938 121.23951 105 ft 2 kts 316°
2026-05-08 06:46 25.07926 121.23963 103 ft 2 kts 316°
2026-05-08 06:47 25.07915 121.23976 107 ft 2 kts 305°
2026-05-08 06:47 25.07907 121.23992 104 ft 2 kts 287°
2026-05-08 06:47 25.07904 121.24009 108 ft 2 kts 263°
2026-05-08 06:47 25.07906 121.24021 103 ft 0 kts 229°
2026-05-08 06:48 25.07904 121.24018 107 ft 1 kts 229°
2026-05-08 06:48 25.07892 121.24003 106 ft 4 kts 228°
2026-05-08 06:49 25.07868 121.23974 107 ft 6 kts 227°
2026-05-08 06:49 25.07834 121.23933 108 ft 8 kts 228°
2026-05-08 06:49 25.07790 121.23878 107 ft 11 kts 229°
2026-05-08 06:49 25.07737 121.23809 108 ft 13 kts 229°
2026-05-08 06:50 25.07674 121.23729 107 ft 15 kts 227°
2026-05-08 06:50 25.07583 121.23714 107 ft 15 kts 146°
2026-05-08 06:50 25.07499 121.23785 107 ft 10 kts 156°
2026-05-08 06:50 25.07447 121.23762 107 ft 9 kts 226°
2026-05-08 06:51 25.07400 121.23703 106 ft 11 kts 229°
2026-05-08 06:51 25.07344 121.23632 106 ft 13 kts 229°
2026-05-08 06:51 25.07281 121.23550 107 ft 15 kts 229°
2026-05-08 06:51 25.07208 121.23458 107 ft 17 kts 229°
2026-05-08 06:52 25.07126 121.23357 105 ft 18 kts 227°
2026-05-08 06:52 25.07037 121.23246 106 ft 20 kts 231°
2026-05-08 06:52 25.06947 121.23128 107 ft 21 kts 229°
2026-05-08 06:52 25.06847 121.23003 107 ft 23 kts 229°
2026-05-08 06:53 25.06739 121.22866 104 ft 25 kts 229°
2026-05-08 06:53 25.06624 121.22719 106 ft 26 kts 229°
2026-05-08 06:53 25.06507 121.22571 106 ft 26 kts 229°
2026-05-08 06:53 25.06392 121.22425 108 ft 23 kts 229°
2026-05-08 06:54 25.06331 121.22349 106 ft 10 kts 224°
2026-05-08 06:54 25.06284 121.22334 105 ft 1 kts 175°
2026-05-08 06:54 25.06266 121.22338 104 ft 4 kts 167°
2026-05-08 06:54 25.06231 121.22362 104 ft 8 kts 137°
2026-05-08 06:55 25.06182 121.22419 103 ft 12 kts 117°
2026-05-08 06:55 25.06203 121.22505 101 ft 13 kts 52°
2026-05-08 06:55 25.06303 121.22632 102 ft 36 kts 49°
2026-05-08 06:55 25.06531 121.22920 100 ft 63 kts 49°
2026-05-08 06:56 25.06891 121.23372 102 ft 94 kts 49°
2026-05-08 06:56 25.07437 121.24056 100 ft 149 kts 49°
2026-05-08 06:56 25.08249 121.25029 434 ft 185 kts 46°
2026-05-08 06:56 25.09176 121.26057 1078 ft 191 kts 46°
2026-05-08 06:57 25.10057 121.27197 1696 ft 198 kts 53°
2026-05-08 06:57 25.10949 121.28450 2226 ft 221 kts 52°
2026-05-08 06:57 25.11961 121.29831 2827 ft 237 kts 49°
2026-05-08 06:57 25.13101 121.31197 3644 ft 246 kts 47°
2026-05-08 06:58 25.14309 121.32600 4383 ft 259 kts 47°
2026-05-08 06:58 25.15582 121.34069 5118 ft 271 kts 47°
2026-05-08 06:58 25.16910 121.35593 5889 ft 280 kts 46°
2026-05-08 06:58 25.18286 121.37170 6599 ft 289 kts 45°
2026-05-08 06:59 25.19694 121.38787 7378 ft 295 kts 45°
2026-05-08 06:59 25.21237 121.40561 8209 ft 301 kts 45°
2026-05-08 06:59 25.26508 121.46633 11104 ft 312 kts 44°
2026-05-08 06:59 25.28949 121.55554 13266 ft 348 kts 104°
2026-05-08 07:00 25.31222 121.66460 15069 ft 397 kts 72°
2026-05-08 07:00 25.33893 121.79000 17293 ft 433 kts 77°
2026-05-08 07:00 25.36451 121.92330 19715 ft 451 kts 77°
2026-05-08 07:00 25.39109 122.06132 21992 ft 466 kts 77°
2026-05-08 07:01 25.41842 122.20374 23987 ft 479 kts 76°
2026-05-08 07:01 25.46365 122.34405 25534 ft 492 kts 66°
2026-05-08 07:01 25.51342 122.48771 26993 ft 508 kts 68°
2026-05-08 07:01 25.56306 122.63702 28298 ft 523 kts 68°
2026-05-08 07:02 25.61397 122.79009 29451 ft 536 kts 68°
2026-05-08 07:02 25.66614 122.94645 30410 ft 546 kts 67°
2026-05-08 07:02 25.71977 123.10526 31182 ft 552 kts 67°
2026-05-08 07:02 25.77329 123.26504 32325 ft 552 kts 68°
2026-05-08 07:03 25.82658 123.42473 33368 ft 550 kts 67°
2026-05-08 07:03 25.88599 123.57961 34284 ft 537 kts 45°
2026-05-08 07:03 26.01004 123.65889 34911 ft 515 kts 19°
2026-05-08 07:03 26.13810 123.72580 35775 ft 513 kts 19°
2026-05-08 07:04 26.26686 123.79351 36275 ft 513 kts 19°
2026-05-08 07:04 26.39688 123.86183 36232 ft 516 kts 19°
2026-05-08 07:04 26.52487 123.92936 36164 ft 499 kts 18°
2026-05-08 07:04 26.64914 123.99554 36188 ft 495 kts 23°
2026-05-08 07:05 26.74462 124.11378 36317 ft 522 kts 46°
2026-05-08 07:05 26.83816 124.24069 36333 ft 535 kts 44°
2026-05-08 07:05 27.03067 124.49983 36251 ft 540 kts 45°
2026-05-08 07:06 27.21971 124.75575 36246 ft 529 kts 45°
2026-05-08 07:06 27.37136 124.96218 36309 ft 540 kts 45°
2026-05-08 07:07 27.56524 125.22431 36268 ft 543 kts 45°
2026-05-08 07:07 27.75612 125.48355 36243 ft 533 kts 45°
2026-05-08 07:08 27.94596 125.74279 36319 ft 546 kts 45°
2026-05-08 07:08 28.14007 126.00970 36243 ft 546 kts 45°
2026-05-08 07:09 28.33086 126.27355 36265 ft 540 kts 45°
2026-05-08 07:09 28.49041 126.49546 36323 ft 551 kts 45°
2026-05-08 07:10 28.68494 126.76774 36253 ft 552 kts 46°
2026-05-08 07:10 28.87584 127.03661 36252 ft 541 kts 46°
2026-05-08 07:11 29.09882 127.35282 36316 ft 558 kts 46°
2026-05-08 07:11 29.26157 127.58529 36232 ft 553 kts 46°
2026-05-08 07:12 29.45096 127.85734 36251 ft 545 kts 47°
2026-05-08 07:12 29.64239 128.13392 36324 ft 561 kts 47°
2026-05-08 07:13 29.83481 128.41391 36235 ft 557 kts 48°
2026-05-08 07:13 30.02446 128.69165 36265 ft 550 kts 48°
2026-05-08 07:14 30.21581 128.97390 36303 ft 566 kts 48°
2026-05-08 07:14 30.41010 129.26249 36217 ft 563 kts 49°
2026-05-08 07:15 30.59941 129.54573 36245 ft 554 kts 49°
2026-05-08 07:15 30.78906 129.83156 36282 ft 570 kts 49°
2026-05-08 07:16 30.96425 130.14067 36212 ft 569 kts 56°
2026-05-08 07:16 31.12845 130.45156 36196 ft 560 kts 56°
2026-05-08 07:17 31.29314 130.76594 36212 ft 575 kts 56°
2026-05-08 07:17 31.45973 131.08668 36131 ft 572 kts 57°
2026-05-08 07:18 31.62261 131.40280 36106 ft 565 kts 57°
2026-05-08 07:18 31.78562 131.72210 36150 ft 581 kts 57°
2026-05-08 07:19 31.95091 132.04874 36098 ft 575 kts 57°
2026-05-08 07:19 32.11184 132.36946 36123 ft 567 kts 57°
2026-05-08 07:20 32.25666 132.70669 36168 ft 583 kts 62°
2026-05-08 07:20 32.40068 133.04954 36063 ft 577 kts 62°
2026-05-08 07:21 32.54121 133.38755 36110 ft 571 kts 62°
2026-05-08 07:21 32.68295 133.73162 36135 ft 587 kts 63°
2026-05-08 07:22 32.82353 134.07926 36033 ft 577 kts 68°
2026-05-08 07:22 32.91409 134.44228 36088 ft 575 kts 74°
2026-05-08 07:23 33.00531 134.81326 36100 ft 590 kts 75°
2026-05-08 07:23 33.10355 135.18298 35964 ft 575 kts 55°
2026-05-08 07:24 33.21712 135.30910 36097 ft 558 kts 30°
2026-05-08 07:24 33.34280 135.42179 36132 ft 571 kts 31°
2026-05-08 07:24 33.59689 135.65308 36000 ft 575 kts 32°
2026-05-08 07:25 33.72329 135.76824 35891 ft 565 kts 31°
2026-05-08 07:25 33.84844 135.88112 35859 ft 560 kts 31°
2026-05-08 07:25 34.10062 136.11039 36023 ft 578 kts 31°
2026-05-08 07:26 34.22888 136.22766 35852 ft 576 kts 32°
2026-05-08 07:26 34.48180 136.45835 35947 ft 565 kts 31°
2026-05-08 07:27 34.73646 136.69121 36036 ft 581 kts 31°
2026-05-08 07:27 34.99826 136.92302 35951 ft 577 kts 28°
2026-05-08 07:28 35.25862 137.14547 35992 ft 569 kts 29°
2026-05-08 07:28 35.35682 137.23315 35995 ft 583 kts 38°
2026-05-08 07:28 35.44647 137.40758 36075 ft 597 kts 69°
2026-05-08 07:29 35.58666 137.77759 35911 ft 590 kts 65°
2026-05-08 07:29 35.74245 138.08140 35909 ft 569 kts 32°
2026-05-08 07:30 35.99152 138.32239 35926 ft 569 kts 34°
2026-05-08 07:30 36.24125 138.56931 36023 ft 586 kts 34°
2026-05-08 07:31 36.49079 138.81925 36113 ft 586 kts 34°
2026-05-08 07:31 36.57191 138.90091 35983 ft 583 kts 34°
2026-05-08 07:31 36.63458 138.96418 35942 ft 577 kts 34°
2026-05-08 07:32 36.73755 139.06841 35961 ft 573 kts 34°
2026-05-08 07:32 36.81506 139.14707 35987 ft 578 kts 34°
2026-05-08 07:33 36.83625 139.16859 35994 ft 580 kts 34°
2026-05-08 07:33 36.95273 139.28642 36009 ft 588 kts 35°
2026-05-08 07:34 37.07916 139.41507 35626 ft 576 kts 35°
2026-05-08 07:34 37.13688 139.47383 34316 ft 575 kts 35°
2026-05-08 07:34 37.19883 139.53721 32408 ft 579 kts 35°
2026-05-08 07:34 37.26015 139.60007 30669 ft 582 kts 36°
2026-05-08 07:35 37.32407 139.66570 29181 ft 576 kts 36°
2026-05-08 07:35 37.38399 139.73104 27994 ft 567 kts 43°
2026-05-08 07:35 37.43435 139.80626 26819 ft 557 kts 55°
2026-05-08 07:35 37.47563 139.88784 25633 ft 548 kts 58°
2026-05-08 07:36 37.51640 139.96665 24545 ft 540 kts 57°
2026-05-08 07:36 37.55713 140.04459 22861 ft 511 kts 57°
2026-05-08 07:36 37.59473 140.11708 20407 ft 492 kts 57°
2026-05-08 07:36 37.63060 140.18651 18162 ft 473 kts 57°
2026-05-08 07:37 37.64838 140.22093 16926 ft 468 kts 57°
2026-05-08 07:37 37.66632 140.25562 16243 ft 471 kts 57°
2026-05-08 07:37 37.68403 140.28991 15874 ft 463 kts 57°
2026-05-08 07:37 37.70145 140.32368 15523 ft 454 kts 57°
2026-05-08 07:38 37.71849 140.35680 15214 ft 445 kts 57°
2026-05-08 07:38 37.73525 140.38941 14773 ft 441 kts 57°
2026-05-08 07:38 37.75192 140.42189 14261 ft 439 kts 57°
2026-05-08 07:38 37.76848 140.45415 13835 ft 436 kts 57°
2026-05-08 07:39 37.78467 140.48629 13480 ft 430 kts 59°
2026-05-08 07:39 37.79987 140.51825 13390 ft 417 kts 60°
2026-05-08 07:39 37.81445 140.54943 13303 ft 404 kts 60°
2026-05-08 07:39 37.82857 140.57957 13211 ft 393 kts 60°
2026-05-08 07:40 37.84208 140.60820 13013 ft 365 kts 60°
2026-05-08 07:40 37.85472 140.63489 12685 ft 345 kts 59°
2026-05-08 07:40 37.86682 140.66042 12270 ft 332 kts 59°
2026-05-08 07:40 37.87854 140.68521 11699 ft 325 kts 59°
2026-05-08 07:41 37.88987 140.70981 11048 ft 321 kts 60°
2026-05-08 07:41 37.90103 140.73416 10384 ft 317 kts 59°
2026-05-08 07:41 37.91200 140.75807 9796 ft 312 kts 59°
2026-05-08 07:41 37.92270 140.78132 9176 ft 307 kts 59°
2026-05-08 07:42 37.93336 140.80450 8569 ft 302 kts 59°
2026-05-08 07:42 37.94384 140.82728 7957 ft 296 kts 60°
2026-05-08 07:42 37.95411 140.84965 7390 ft 291 kts 60°
2026-05-08 07:42 37.96423 140.87171 6782 ft 287 kts 61°
2026-05-08 07:43 37.97416 140.89332 6243 ft 280 kts 61°
2026-05-08 07:43 37.98382 140.91438 5699 ft 273 kts 62°
2026-05-08 07:43 37.99332 140.93512 5015 ft 271 kts 62°
2026-05-08 07:43 38.00272 140.95567 4363 ft 268 kts 63°
2026-05-08 07:44 38.00873 140.96880 3951 ft 265 kts 63°
2026-05-08 07:44 38.01763 140.98823 3785 ft 252 kts 63°
2026-05-08 07:44 38.02653 141.00778 3653 ft 261 kts 63°
2026-05-08 07:44 38.03573 141.02796 3537 ft 267 kts 63°
2026-05-08 07:45 38.04504 141.04835 3517 ft 268 kts 63°
2026-05-08 07:45 38.05432 141.06867 3350 ft 264 kts 63°
2026-05-08 07:45 38.06343 141.08865 3094 ft 259 kts 63°
2026-05-08 07:45 38.07226 141.10798 3026 ft 249 kts 64°
2026-05-08 07:46 38.08138 141.12671 2970 ft 253 kts 55°
2026-05-08 07:46 38.09599 141.13973 2976 ft 268 kts 19°
2026-05-08 07:46 38.11473 141.14038 2797 ft 271 kts 351°
2026-05-08 07:46 38.13268 141.13601 2568 ft 257 kts 351°
2026-05-08 07:47 38.14948 141.13082 2172 ft 240 kts 333°
2026-05-08 07:47 38.16015 141.11686 1988 ft 209 kts 288°
2026-05-08 07:47 38.15992 141.10063 1938 ft 178 kts 245°
2026-05-08 07:47 38.15863 141.09719 1976 ft 178 kts 241°
2026-05-08 07:48 38.15444 141.08273 1949 ft 184 kts 264°
2026-05-08 07:48 38.15477 141.06670 1965 ft 180 kts 266°
2026-05-08 07:49 38.15398 141.05080 1851 ft 181 kts 264°
2026-05-08 07:49 38.15288 141.03555 1605 ft 168 kts 261°
2026-05-08 07:49 38.15144 141.02124 1383 ft 159 kts 261°
2026-05-08 07:49 38.15000 141.00734 1192 ft 159 kts 261°
2026-05-08 07:50 38.14856 140.99343 972 ft 158 kts 261°
2026-05-08 07:50 38.14755 140.98359 828 ft 157 kts 261°
2026-05-08 07:50 38.14693 140.97759 729 ft 157 kts 260°
2026-05-08 07:50 38.14666 140.97496 696 ft 156 kts 261°
2026-05-08 07:51 38.14611 140.96975 616 ft 155 kts 261°
2026-05-08 07:51 38.14472 140.95618 413 ft 154 kts 261°
2026-05-08 07:51 38.14337 140.94278 211 ft 152 kts 261°
2026-05-08 07:51 38.14203 140.92951 41 ft 151 kts 259°
2026-05-08 07:52 38.14066 140.91740 20 ft 121 kts 263°
2026-05-08 07:52 38.13973 140.90877 26 ft 77 kts 264°
2026-05-08 07:52 38.13932 140.90500 23 ft 17 kts 239°
2026-05-08 07:52 38.13823 140.90466 20 ft 17 kts 156°
2026-05-08 07:53 38.13784 140.90592 17 ft 16 kts 84°
2026-05-08 07:53 38.13797 140.90733 17 ft 16 kts 82°
2026-05-08 07:53 38.13812 140.90874 17 ft 16 kts 83°
2026-05-08 07:53 38.13826 140.91016 17 ft 16 kts 83°
2026-05-08 07:54 38.13840 140.91157 18 ft 16 kts 82°
2026-05-08 07:54 38.13850 140.91250 18 ft 16 kts 82°
2026-05-08 07:54 38.13865 140.91391 18 ft 16 kts 82°
2026-05-08 07:54 38.13880 140.91532 18 ft 16 kts 82°
2026-05-08 07:55 38.13894 140.91673 19 ft 16 kts 82°
2026-05-08 07:55 38.13909 140.91814 18 ft 16 kts 82°
2026-05-08 07:55 38.13923 140.91954 18 ft 16 kts 82°
2026-05-08 07:55 38.13938 140.92095 18 ft 16 kts 82°
2026-05-08 07:56 38.13953 140.92236 18 ft 16 kts 82°
2026-05-08 07:56 38.13968 140.92377 18 ft 16 kts 82°
2026-05-08 07:56 38.13981 140.92518 18 ft 16 kts 83°
2026-05-08 07:56 38.13996 140.92659 18 ft 16 kts 81°
2026-05-08 07:57 38.14010 140.92800 18 ft 16 kts 82°
2026-05-08 07:57 38.14025 140.92940 18 ft 16 kts 83°
2026-05-08 07:57 38.14001 140.92992 17 ft 8 kts 159°
2026-05-08 07:57 38.13948 140.93003 17 ft 8 kts 173°
2026-05-08 07:58 38.13907 140.93010 17 ft 0 kts 173°